Regional Weather Roundup
Issued by NWS

Home | Current Version | Previous Version | Text Only | Print | Product List | Glossary On
Versions: 1 2 3 4 5 6 7 8 9 10 11 12 13 14 15 16 17 18 19 20 21 22 23 24 25 26 27 28 29 30 31 32 33 34 35 36 37 38 39 40 41 42 43 44 45 46 47 48 49 50
000
ASHW40 PHFO 110012
RWRHI

WEATHER ROUNDUP FOR HAWAII
NATIONAL WEATHER SERVICE HONOLULU HI
200 PM HST SUN DEC 10 2017

THIS IS AN AUTOMATED REPORT THAT HAS NOT BEEN QUALITY CONTROLLED.

NOTE..."FAIR" INDICATES FEW OR NO CLOUDS BELOW 12,000 FEET WITH NO
SIGNIFICANT WEATHER AND/OR OBSTRUCTIONS TO VISIBILITY.

* - THESE SITES REPORT LIMITED FIELDS
# - BUOY DATA PROVIDED BY PACIFIC ISLANDS OCEAN OBSERVING SYSTEM.

HIZ001>004-110100-
KAUAI-NIIHAU-

CITY           SKY/WX    TMP DP  RH WIND       PRES   REMARKS
LIHUE APT      SUNNY     74  63  68 NE7       29.98F
PORT ALLEN*      N/A     81 N/A N/A SE14        N/A
POIPU*           N/A     79 N/A N/A E7G13       N/A
PRINCEVILLE*   NOT AVBL
KOKOLE POINT*  NOT AVBL
MOLOAA DAIRY*    N/A     75  63  64 E6G13       N/A
WAIMEA HTS*    NOT AVBL
PUU OPAE*      NOT AVBL
PUU LUA*       NOT AVBL
MAKAHA RIDGE*  NOT AVBL
$$

HIZ005>011-110100-
OAHU-

CITY           SKY/WX    TMP DP  RH WIND       PRES   REMARKS
HONOLULU       PTSUNNY   81  64  56 NE12      29.95F
KALAELOA         N/A     77  65  66 SW7       29.97F
KANEOHE MCB    CLOUDY    77  67  71 CALM      29.94F
WHEELER FIELD  PTSUNNY   76  65  68 E9        29.98F
BELLOWS*       NOT AVBL
KAHUKU*        NOT AVBL
WHEELER*       NOT AVBL
WAIANAE HARBOR NOT AVBL
DILLINGHAM*    NOT AVBL
KAHUKU TRN*      N/A     79  66  65 NW2G13      N/A
KAWAILOA*        N/A     73  64  73 E8G15       N/A
KII*             N/A     77  66  69 E6G15       N/A
MAKUA RANGE*     N/A     70  54  56 N3G14       N/A
OAHU FOREST NW NOT AVBL
SCHOFIELD BRK*   N/A     73  63  68 MISG        N/A
SCHOFIELD S*   NOT AVBL
WAIANAE VLY*   NOT AVBL
KUAOKALA*      NOT AVBL
HONOULIUULI*   NOT AVBL
MOKUOLOE IS*   NOT AVBL
PALEHUA*       NOT AVBL
WAIAWA PHB*    NOT AVBL
$$

HIZ012>013-110100-
MOLOKAI-

CITY           SKY/WX    TMP DP  RH WIND       PRES   REMARKS
MOLOKAI AIRPT  CLOUDY    73  68  84 NE12G20   29.97F
KALAUPAPA      NOT AVBL
MAKAPULAPAI*   NOT AVBL
MOLOKAI 1*     NOT AVBL
PUU ALII*      NOT AVBL
$$

HIZ016-110100-
KAHOOLAWE-

CITY           SKY/WX    TMP DP  RH WIND       PRES   REMARKS
KAHOOLAWE*     NOT AVBL
HAKIOAWA*      NOT AVBL
HONOKANAIA*    NOT AVBL
KANELOA*         N/A     73  66  78 E13G23    30.04F
KEALIALALO*    NOT AVBL
LUA MAKIKA*    NOT AVBL
$$

HIZ014>015-110100-
LANAI-

CITY           SKY/WX    TMP DP  RH WIND       PRES   REMARKS
LANAI CITY     CLOUDY    72  64  76 SE6       30.01F
LANAI 1*       NOT AVBL
$$

HIZ017>028-110100-
MAUI-

CITY           SKY/WX    TMP DP  RH WIND       PRES   REMARKS
KAHULUI        CLOUDY    79  69  71 NE13      29.93F
KAPALUA-W MAUI PTSUNNY   72  72 100 VRB3      29.97
HANA AIRPORT   CLOUDY    73  73 100 E5        29.99F FOG
HANA*            N/A     73 N/A N/A NE6         N/A
HALEAKALA SUMM   N/A     55  19  24 NW7         N/A
MAALAEA BAY*   NOT AVBL
HALEAKALA*     NOT AVBL
KAUPO GAP*     NOT AVBL
KULA 1*          N/A     60  53  76 NW5         N/A
$$

HIZ023>026-110100-
BIG ISLAND OF HAWAII COAST AND LOWER SLOPES-

CITY           SKY/WX    TMP DP  RH WIND       PRES   REMARKS
KAILUA KONA    MOSUNNY   79  64  60 SW9       29.93F
HILO           SUNNY     81  63  54 E10       29.95F
HONOKAA*         N/A     75 N/A N/A VRB1        N/A
KAWAIHAE MWT*    N/A     81 N/A N/A W7          N/A
KAWAIHAE*      NOT AVBL
SOUTH POINT*     N/A     75 N/A N/A N15         N/A
UPOLU AIRPORT* NOT AVBL
KAMUELA*       CLEAR     73  59  60 N14       30.04F
HAKALAU*         N/A     61  52  73 E6G12       N/A
KALOKO-HONOKO* NOT AVBL
PALI 2*          N/A     70  59  68 NW13G23     N/A
KEALAKOMO*       N/A     81  64  57 E17G23      N/A
KAUPULEHU*     NOT AVBL
KAPAPALA*        N/A     73  62  68 E5G10       N/A
LOWER KAHUKU*  NOT AVBL
PUHE CS*       NOT AVBL
PUHO CS*       NOT AVBL
PTA KEAMUKU*     N/A     70  57  64 N9G18       N/A
WAIKOLOA*      NOT AVBL
$$

HIZ027>028-110100-
BIG ISLAND OF HAWAII INTERIOR AND SUMMMITS-

CITY           SKY/WX    TMP DP  RH WIND       PRES   REMARKS
BRADSHAW FIELD SUNNY     66  51  58 W10       30.23F
MK VISITOR CEN   N/A     55  39  54 SW8         N/A
MAUNA KEA*       N/A     45  23  42 NE1G14      N/A
MAUNA LOA*     NOT AVBL
MAUNA LOA 1*   NOT AVBL
PTA KIPUKA*      N/A     66  50  55 S7G14       N/A
PTA RANGE 17*    N/A     68  55  64 SE10G18     N/A
PTA WEST*        N/A     70  55  60 N10G16      N/A
NENE CABIN*    NOT AVBL
AHUMOA*        NOT AVBL
PTA PORTABLE*  NOT AVBL
PUU MALI*        N/A     55  54  94 NE9G18      N/A
$$

HIC003-110100-
NORTHWEST ISLANDS-

CITY           SKY/WX    TMP DP  RH WIND       PRES   REMARKS
MIDWAY ISLAND  RAIN      70  66  88 N14       30.02S FOG
MIDWAY NOS*    NOT AVBL
FRENCH FRIGATE NOT AVBL
$$

PHZ110>124-180-110100-
BUOY REPORTS

STATION/POSITION TIME  TEMP    WIND        PRES    WAVE   SWELL
                       AIR SEA DIR/SP/G            HT/PER HT/DIR
                 (UTC) (F)     (DEG/KT/KT) (MB)    (FT/S) (FT/D)
BUOY 51001       2350   71 76  130/  8/ 12 1015.4F  12/14  11
BUOY 51101       2350   71 75  140/ 10/ 14 1015.8F  12/14  11/320
BUOY 51100       NOT AVBL
BUOY 51002       2350   77 79   70/ 14/ 17 1013.0F   6/15   5/350
BUOY 51003       2350   76 78   60/  8/ 10 1014.0F   9/14   8/330
BUOY 51004       2350   76 79   60/ 10/ 14 1013.4F   6/16   7
WAIMEA BAY#      2302      75                N/A    13/14  11/340
MOKAPU POINT#    2334      77                N/A    11/14  10/350
LANAI#           NOT AVBL
BARBERS PT 2#    NOT AVBL
PAUWELA#         2330      78                N/A    14/13  11/330
HILO#            2357      78                N/A     9/15   8/350
KANEOHE BAY#     NOT AVBL
KANEOHE BAY 2#   NOT AVBL
HANALEI#         2352      77                N/A    12/14  10/330
KAHULUI HARBOR   2348           10/  8/ 11   N/A
HONOLULU HARBOR  2348          350/  2/  6   N/A
PEARL HARBOR#    2300      78                N/A     2/13   2/170
KILO NALU        NOT AVBL
HILO HARBOR      2348           60/  8/ 12   N/A
MOKUOLOE         2336   74 75  310/  3/  5 1015.1F
NAWILIWILI       2348           40/  5/  9   N/A
WHOTS BUOY       NOT AVBL
BUOY 51028       NOT AVBL
$$

......................KEY........................................
  SKY/WX - SKY CONDITIONS/PRESENT WEATHER
  TMP    - TEMPERATURE IN FAHRENHEIT
  DWPT   - DEWPOINT IN FAHRENHEIT
  RH     - RELATIVE HUMIDITY IN PERCENT
  WIND   - DIRECTION AND SPEED /MPH FOR ISLANDS...KTS FOR BUOYS/
  PRES   - MEAN SEA LEVEL PRESSURE IN INCHES OF HG
  VSB    - VISIBILITY IN MILES
  HX     - HEAT INDEX
  WCI    - WIND CHILL INDEX
  VRB    - VARIABLE WIND DIRECTION
  N/A    - NOT AVAILABLE




USA.gov is the U.S. government's official web portal to all federal, state and local government web resources and services.